Weather Roundup
Issued by NWS

Home | Current Version | Previous Version | Graphics & Text | Print | Product List | Glossary Off
Versions: 1 2 3 4 5 6 7 8 9 10 11 12 13 14 15 16 17 18 19 20 21 22 23 24 25 26 27 28 29 30 31 32 33 34 35 36 37 38 39 40 41 42 43 44 45 46 47 48 49 50

000
NZUS93 KARX 040259
HRRWXR

CURRENT HOURLY OBSERVATIONS ACROSS
MUCH OF THE UPPER MISSISSIPPI VALLEY
NATIONAL WEATHER SERVICE LA CROSSE WI
1000 PM CDT MON AUG 03 2015


...SOUTHEAST MINNESOTA...


CITY           SKY/WX    TMP DP  RH WIND       PRES   REMARKS
ROCHESTER      CLEAR     60  53  77 W8        29.96R
ROCHESTER/MAYO FAIR      68  51  55 W8        29.94R
WINONA         CLEAR     63  55  77 NW3       29.92R
AUSTIN         CLEAR     66  55  68 CALM      29.95R
ALBERT LEA     CLEAR     63  55  77 CALM      29.95S
DODGE CENTER   PTCLDY    61  54  77 W3        29.95R
PRESTON        CLEAR     62  52  70 W7        29.95R
OWATONNA       CLEAR     61  54  77 CALM      29.95R
FARIBAULT      CLEAR     61  55  82 SW3       29.95R
$$

...ELSEWHERE IN MINNESOTA...


CITY           SKY/WX    TMP DP  RH WIND       PRES   REMARKS
MINNEAPOLIS    PTCLDY    71  53  52 W7        29.92R
INTNL FALLS    PTCLDY    53  51  93 CALM      29.88R
DULUTH         MOCLDY    64  51  62 NW8       29.90R
RED WING       PTCLDY    63  57  82 CALM      29.90R
REDWOOD FALLS  CLEAR     69  54  58 NW5       29.95R
MANKATO        CLEAR     68  52  56 NW6       29.94S
WORTHINGTON    CLEAR     64  57  77 W3        29.99R
FAIRMONT       CLEAR     66  54  63 CALM      29.96R
$$

...SOUTHWEST WISCONSIN...


CITY           SKY/WX    TMP DP  RH WIND       PRES   REMARKS
LA CROSSE      CLEAR     68  55  63 CALM      29.90R
PRAIRIE DU CHI CLEAR     65  54  68 CALM      29.92R
BOSCOBEL       PTCLDY    62  56  80 CALM      29.93R
LONE ROCK      NOT AVBL
PLATTEVILLE    CLEAR     65  55  71 W6        29.94R
FORT MC COY    CLEAR     61  52  73 CALM      29.92R
VIROQUA        FAIR      64  52  65 W5        29.93R
WIS DELLS      CLEAR     64  49  59 CALM      29.91R
$$

...ELSEWHERE IN WISCONSIN...


CITY           SKY/WX    TMP DP  RH WIND       PRES   REMARKS
MILWAUKEE      PTCLDY    74  50  42 W6        29.88R
MADISON        PTCLDY    67  52  58 W5        29.91R
GREEN BAY      CLOUDY    66  57  72 NW6       29.86R
EAU CLAIRE     NOT AVBL
BLACK RVR FLS  FAIR      57  52  82 CALM      29.90R
MEDFORD        CLOUDY    62  55  77 SW3       29.90R
WAUSAU         PTCLDY    64  53  67 W5        29.87S
WIS RAPIDS     CLEAR     62  53  72 CALM      29.91R
MARSHFIELD     CLEAR     60  53  77 W3        29.90R
RICE LAKE      CLOUDY    64  55  73 CALM      29.91R
$$

...NORTHEAST IOWA...


CITY           SKY/WX    TMP DP  RH WIND       PRES   REMARKS
DECORAH        CLEAR     66  54  63 W3        29.94R
MASON CITY     CLEAR     62  57  83 CALM      29.97R
CHARLES CITY   CLEAR     61  61 100 W3        29.96R
OELWEIN        CLEAR     64  59  82 W6        29.96R
$$

...ELSEWHERE IN IOWA...


CITY           SKY/WX    TMP DP  RH WIND       PRES   REMARKS
DES MOINES     PTCLDY    74  55  51 N3        29.96R
IOWA CITY      CLEAR     66  59  78 W3        29.96R
FORT DODGE     CLEAR     63  57  82 CALM      29.97R
$$

...NORTHERN ILLINOIS...


CITY           SKY/WX    TMP DP  RH WIND       PRES   REMARKS
CHICAGO-OHARE  PTCLDY    70  54  56 W6        29.90R
CHICAGO-MIDWAY CLEAR     74  52  46 W6        29.90R
MOLINE         CLEAR     64  58  80 SW5       29.94R
ROCKFORD       CLEAR     67  55  65 W6        29.93R
PEORIA         CLEAR     71  59  65 NW3       29.95R
$$

NOTE: "FAIR" INDICATES FEW OR NO CLOUDS BELOW 12,000 FEET WITH NO
SIGNIFICANT WEATHER AND/OR OBSTRUCTIONS TO VISIBILITY. WIND
SPEEDS ARE IN MILES-PER-HOUR.



USA.gov is the U.S. government's official web portal to all federal, state and local government web resources and services.